Location: LC-39B
(28.6273°N, 80.6211°W)
Time: 12:05:05
(UTC+00:00)

ISS - Visible Passes

Search period start: 28 May 2015 00:00
Search period end: 07 June 2015 00:00
Orbit: 399 x 404 km, 51.6° (Epoch: 28 May)

Date Brightness Start Highest point End Pass type
(mag) Time Alt. Az. Time Alt. Az. Time Alt. Az.
31 May -2.6 01:12:44 10° SSW 01:15:36 30° SE 01:18:29 10° ENE visible
31 May -0.3 02:49:54 10° W 02:52:04 16° NW 02:54:10 10° N visible
31 May -0.4 09:21:45 10° N 09:24:14 20° NE 09:26:46 10° E visible
01 Jun -1.5 01:55:42 10° WSW 01:58:39 32° NW 02:01:37 10° NNE visible
01 Jun 0.3 08:29:55 10° NNE 08:30:44 11° NE 08:31:40 10° NE visible
02 Jun -3.3 01:02:08 10° SW 01:05:21 81° NW 01:08:35 10° NE visible
02 Jun -2.5 09:11:00 10° NNW 09:14:11 54° NE 09:17:23 10° SE visible
03 Jun 0.1 01:46:51 10° WNW 01:48:41 14° NW 01:50:26 10° N visible
03 Jun -0.9 08:18:07 10° NNW 08:20:49 24° NE 08:23:33 10° E visible
03 Jun -1.9 09:54:44 10° W 09:57:08 18° SW 09:59:27 10° S visible
04 Jun -0.9 00:52:23 10° WSW 00:55:12 27° NW 00:58:01 10° NNE visible
04 Jun 0.1 07:25:52 10° N 07:28:43 10° ENE 07:28:52 10° ENE visible
04 Jun -3.1 09:02:30 26° WNW 09:03:56 44° SW 09:07:03 10° SSE visible
06 Jun 0.1 00:43:49 10° WNW 00:45:12 12° NW 00:46:30 10° NNW visible
